This demonstration page uses our WeatherBlox Daily Observations layout. Learn more.

Left ArrowRight Arrow

44.8408, -93.29828

Hourly Observations for February 6, 2022

Temp ( °F °C ) Dew Point ( °F °C ) Humidity (%) Winds ( mph kmh ) Pressure ( in mb ) Visibility ( mi km ) Precip ( " mm )
12:53 am 00:53 Mostly Clear 21 -6.1 16 -8.9 81 81 SW 3 6 30.00 1016 10 16 0.00 0.00
1:53 am 01:53 Cloudy 19 -7.2 15 -9.4 84 84 Calm 29.99 1016 9 14 0.00 0.00
2:53 am 02:53 Mostly Cloudy 17 -8.3 14 -10 88 88 Calm 30.01 1016 8 13 0.00 0.00
3:53 am 03:53 Cloudy 18 -7.8 14 -10 84 84 Calm 30.02 1017 8 13 0.00 0.00
4:53 am 04:53 Cloudy with Light Snow 22 -5.6 17 -8.3 82 82 SW 3 6 30.02 1017 6 10 0.00 0.00
5:01 am 05:01 Cloudy with Light Snow 21 -6.1 17 -8.3 85 85 SW 5 7 30.06 1018 2 3 0.01 0.25
5:09 am 05:09 Cloudy with Light Snow 21 -6.1 17 -8.3 85 85 SW 3 6 30.06 1018 1 2 0.01 0.25
5:13 am 05:13 Cloudy with Light Snow 21 -6.1 17 -8.3 85 85 SW 5 7 30.06 1018 2 3 0.01 0.25
5:21 am 05:21 Cloudy with Light Snow 21 -6.1 18 -7.8 88 88 SSW 5 7 30.05 1018 5 8 0.01 0.25
5:53 am 05:53 Cloudy with Light Snow 22 -5.6 18 -7.8 85 85 SW 6 9 30.02 1017 4 6 0.02 0.51
6:23 am 06:23 Cloudy 22 -5.6 19 -7.2 89 89 S 3 6 30.04 1017 7 11 0.00 0.00
6:53 am 06:53 Cloudy with Light Snow 22 -5.6 19 -7.2 89 89 Calm 30.02 1017 6 10 0.00 0.00
7:06 am 07:06 Cloudy with Light Snow 22 -5.6 18 -7.8 85 85 NW 3 6 30.07 1018 5 8 0.00 0.00
7:17 am 07:17 Cloudy with Light Snow 22 -5.6 18 -7.8 85 85 Calm 30.07 1018 5 8 0.00 0.00
7:53 am 07:53 Cloudy with Light Snow 23 -5 18 -7.8 81 81 WNW 6 9 30.06 1018 7 11 0.01 0.25
8:05 am 08:05 Cloudy with Light Snow 22 -5.6 18 -7.8 85 85 NW 7 11 30.09 1019 5 8 0.00 0.00
8:53 am 08:53 Cloudy with Mist and Fog 22 -5.6 18 -7.8 85 85 NNW 8 13 30.09 1019 4 6 0.00 0.00
9:21 am 09:21 Cloudy with Light Snow 22 -5.6 18 -7.8 85 85 NW 12 19 30.13 1020 3 4 0.00 0.00
9:30 am 09:30 Cloudy with Light Snow 22 -5.6 18 -7.8 85 85 NNW 10 17 30.13 1020 3 5 0.00 0.00
9:42 am 09:42 Cloudy with Light Snow 22 -5.6 18 -7.8 85 85 NW 12 19 30.14 1021 3 4 0.00 0.00
9:53 am 09:53 Cloudy with Mist and Fog 22 -5.6 18 -7.8 85 85 NW 9 15 30.11 1020 5 8 0.00 0.00
10:02 am 10:02 Cloudy with Mist and Fog 22 -5.6 18 -7.8 85 85 NW 13 20 30.15 1021 6 10 0.00 0.00
10:16 am 10:16 Cloudy 22 -5.6 17 -8.3 82 82 NW 16 26 30.15 1021 8 13 0.00 0.00
10:51 am 10:51 Cloudy 21 -6 16 -9 80 80 NW 15 24 30.16 1021 10 16 0.00 0.00
10:53 am 10:53 Cloudy 21 -6.1 15 -9.4 78 78 NW 15 24 30.14 1021 10 16 0.00 0.00
11:27 am 11:27 Cloudy with Haze 21 -6.1 15 -9.4 78 78 NW 14 22 30.18 1022 4 6 0.00 0.00
11:53 am 11:53 Cloudy 21 -6.1 14 -10 74 74 NW 12 19 30.14 1021 7 11 0.00 0.00
12:53 pm 12:53 Cloudy with Haze 20 -6.7 12 -11.1 71 71 NW 14 22 30.15 1021 6 10 0.00 0.00
1:53 pm 13:53 Cloudy with Haze 19 -7.2 10 -12.2 68 68 NW 17 28 30.16 1021 6 10 0.00 0.00
2:53 pm 14:53 Mostly Cloudy 18 -7.8 7 -13.9 62 62 NNW 16 26 30.17 1022 10 16 0.00 0.00
3:00 pm 15:00 Mostly Cloudy 18 -7.8 7 -13.9 62 62 NW 15 24 30.20 1023 10 16 0.00 0.00
3:53 pm 15:53 Cloudy 16 -8.9 5 -15 62 62 WNW 16 26 30.20 1023 10 16 0.00 0.00
4:53 pm 16:53 Cloudy 14 -10 3 -16.1 61 61 NW 14 22 30.20 1023 10 16 0.00 0.00
5:53 pm 17:53 Cloudy 13 -10.6 2 -16.7 61 61 NW 17 28 30.24 1024 10 16 0.00 0.00
6:53 pm 18:53 Cloudy 12 -11.1 1 -17.2 61 61 NW 16 26 30.27 1025 10 16 0.00 0.00
7:53 pm 19:53 Partly Cloudy 10 -12.2 -1 -18.3 61 61 NW 10 17 30.29 1026 10 16 0.00 0.00
8:53 pm 20:53 Clear 8 -13.3 -2 -18.9 63 63 NW 9 15 30.30 1026 10 16 0.00 0.00
9:53 pm 21:53 Clear 6 -14.4 -3 -19.4 66 66 NW 8 13 30.31 1027 10 16 0.00 0.00
10:53 pm 22:53 Clear 4 -15.6 -4 -20 69 69 NW 9 15 30.32 1027 10 16 0.00 0.00
11:53 pm 23:53 Clear 3 -16.1 -5 -20.6 69 69 WNW 8 13 30.32 1027 10 16 0.00 0.00

Powered by AerisWeather